Total_Precipitation_Accumulation
0.02 0.06 0.14 0.13 0.11 0.12 0.14 0.12 0.10 0.10 0.10 0.12 0.16 0.18 0.18 0.19 0.17 0.14 0.13 0.17 0.23 0.30 0.36 0.38 0.36 0.34 0.30 0.25 0.14 0.07 0.03 0.02 0.02 0.02 0.02 0.03 0.05 0.06 0.05 0.04 0.05 0.07 0.10
0.01 0.05 0.10 0.11 0.12 0.14 0.15 0.12 0.09 0.07 0.08 0.12 0.16 0.17 0.19 0.18 0.16 0.16 0.20 0.23 0.26 0.29 0.34 0.32 0.31 0.26 0.19 0.12 0.06 0.03 0.01 0.00 0.00 0.00 0.00 0.01 0.02 0.04 0.04 0.04 0.05 0.07 0.10
0.01 0.04 0.08 0.10 0.12 0.14 0.13 0.10 0.06 0.05 0.07 0.12 0.15 0.16 0.18 0.18 0.18 0.19 0.20 0.22 0.24 0.25 0.22 0.19 0.16 0.11 0.07 0.04 0.02 0.02 0.01 0.01 0.01 0.00 0.01 0.03 0.04 0.05 0.05 0.05 0.07 0.10 0.11
0.03 0.04 0.06 0.09 0.11 0.12 0.12 0.07 0.05 0.05 0.08 0.11 0.15 0.17 0.18 0.18 0.17 0.18 0.16 0.16 0.17 0.14 0.11 0.09 0.05 0.03 0.02 0.02 0.01 0.01 0.01 0.00 0.00 0.01 0.02 0.03 0.04 0.08 0.10 0.10 0.11 0.12 0.12
0.04 0.06 0.08 0.09 0.12 0.12 0.10 0.06 0.05 0.06 0.08 0.12 0.15 0.16 0.20 0.20 0.19 0.18 0.13 0.10 0.09 0.06 0.04 0.03 0.02 0.01 0.01 0.01 0.01 0.01 0.00 0.00 0.00 0.01 0.02 0.04 0.05 0.10 0.12 0.11 0.12 0.12 0.12
0.07 0.07 0.11 0.12 0.14 0.12 0.09 0.06 0.05 0.06 0.09 0.13 0.15 0.15 0.19 0.22 0.24 0.19 0.09 0.05 0.05 0.02 0.02 0.01 0.01 0.01 0.00 0.00 0.01 0.00 0.00 0.00 0.00 0.01 0.02 0.03 0.05 0.13 0.14 0.13 0.13 0.15 0.17
0.09 0.12 0.15 0.16 0.15 0.12 0.10 0.07 0.06 0.07 0.09 0.12 0.14 0.15 0.17 0.20 0.23 0.20 0.07 0.03 0.02 0.01 0.01 0.01 0.01 0.00 0.00 0.00 0.00 0.00 0.00 0.00 0.00 0.01 0.02 0.03 0.08 0.17 0.17 0.15 0.15 0.15 0.14
0.13 0.16 0.20 0.22 0.18 0.13 0.10 0.08 0.07 0.08 0.09 0.11 0.13 0.14 0.15 0.16 0.18 0.19 0.08 0.02 0.01 0.01 0.01 0.01 0.01 0.01 0.01 0.00 0.00 0.00 0.00 0.00 0.00 0.01 0.02 0.03 0.07 0.11 0.10 0.09 0.09 0.10 0.10
0.21 0.22 0.22 0.23 0.24 0.19 0.13 0.10 0.09 0.08 0.08 0.10 0.12 0.15 0.12 0.10 0.12 0.13 0.07 0.02 0.01 0.01 0.02 0.02 0.02 0.02 0.01 0.01 0.00 0.00 0.00 0.00 0.00 0.01 0.01 0.02 0.04 0.06 0.06 0.07 0.10 0.11 0.12
0.40 0.33 0.26 0.22 0.21 0.22 0.19 0.12 0.10 0.08 0.07 0.09 0.10 0.09 0.07 0.06 0.08 0.09 0.05 0.02 0.01 0.02 0.02 0.02 0.02 0.02 0.01 0.01 0.00 0.00 0.00 0.00 0.00 0.00 0.01 0.01 0.03 0.04 0.05 0.07 0.09 0.11 0.12
0.59 0.49 0.35 0.26 0.22 0.20 0.20 0.14 0.12 0.09 0.07 0.07 0.06 0.05 0.05 0.06 0.06 0.05 0.03 0.02 0.01 0.02 0.02 0.02 0.02 0.01 0.01 0.00 0.00 0.00 0.00 0.00 0.00 0.00 0.01 0.01 0.02 0.03 0.04 0.06 0.07 0.08 0.09
0.63 0.54 0.42 0.33 0.27 0.22 0.19 0.17 0.15 0.10 0.08 0.06 0.04 0.03 0.05 0.05 0.05 0.04 0.02 0.01 0.01 0.01 0.01 0.01 0.01 0.01 0.00 0.00 0.00 0.00 0.00 0.00 0.00 0.00 0.00 0.01 0.01 0.03 0.04 0.05 0.06 0.06 0.06
0.76 0.61 0.48 0.41 0.34 0.27 0.22 0.18 0.16 0.11 0.08 0.07 0.05 0.04 0.04 0.05 0.05 0.04 0.02 0.02 0.01 0.01 0.01 0.01 0.01 0.00 0.00 0.00 0.00 0.00 0.00 0.00 0.00 0.00 0.00 0.01 0.01 0.02 0.04 0.05 0.05 0.05 0.06
0.97 0.78 0.64 0.53 0.44 0.34 0.28 0.23 0.18 0.12 0.08 0.08 0.07 0.04 0.04 0.04 0.04 0.03 0.02 0.01 0.01 0.00 0.01 0.00 0.00 0.00 0.00 0.00 0.00 0.00 0.00 0.00 0.00 0.00 0.01 0.01 0.01 0.02 0.04 0.05 0.05 0.06 0.07
1.06 0.95 0.80 0.71 0.59 0.46 0.36 0.29 0.23 0.18 0.12 0.08 0.08 0.05 0.04 0.04 0.04 0.04 0.02 0.02 0.01 0.00 0.00 0.00 0.00 0.00 0.01 0.00 0.00 0.00 0.00 0.00 0.00 0.01 0.01 0.00 0.00 0.01 0.03 0.04 0.06 0.08 0.13
1.05 1.04 0.95 0.83 0.73 0.59 0.45 0.32 0.26 0.22 0.16 0.11 0.09 0.07 0.06 0.04 0.04 0.04 0.03 0.02 0.02 0.02 0.02 0.02 0.02 0.01 0.01 0.01 0.00 0.00 0.01 0.01 0.01 0.01 0.01 0.00 0.00 0.01 0.02 0.04 0.06 0.12 0.17
1.13 1.18 1.09 0.99 0.91 0.73 0.58 0.46 0.33 0.26 0.21 0.16 0.13 0.11 0.08 0.06 0.05 0.04 0.04 0.03 0.04 0.04 0.03 0.03 0.03 0.02 0.02 0.02 0.02 0.02 0.02 0.02 0.02 0.02 0.02 0.02 0.01 0.01 0.01 0.03 0.07 0.11 0.17
1.23 1.27 1.24 1.10 1.10 1.02 0.85 0.64 0.47 0.35 0.29 0.22 0.20 0.17 0.14 0.10 0.09 0.09 0.08 0.07 0.07 0.05 0.05 0.06 0.05 0.05 0.04 0.04 0.04 0.04 0.05 0.05 0.04 0.03 0.03 0.02 0.02 0.03 0.02 0.02 0.04 0.07 0.12
1.27 1.27 1.34 1.24 1.19 1.27 1.22 0.97 0.74 0.62 0.48 0.38 0.32 0.25 0.22 0.20 0.19 0.18 0.15 0.13 0.12 0.12 0.10 0.09 0.08 0.08 0.07 0.07 0.06 0.07 0.07 0.07 0.05 0.04 0.04 0.02 0.02 0.02 0.02 0.02 0.02 0.03 0.06
1.34 1.39 1.42 1.46 1.37 1.43 1.54 1.41 1.14 0.90 0.76 0.66 0.51 0.44 0.39 0.32 0.30 0.26 0.21 0.20 0.19 0.19 0.17 0.16 0.14 0.12 0.11 0.12 0.12 0.09 0.08 0.07 0.05 0.05 0.04 0.03 0.02 0.02 0.02 0.02 0.02 0.02 0.03
1.19 1.36 1.33 1.40 1.50 1.51 1.50 1.41 1.24 1.02 0.90 0.85 0.75 0.67 0.57 0.49 0.41 0.34 0.31 0.30 0.27 0.24 0.21 0.20 0.19 0.18 0.16 0.18 0.18 0.13 0.09 0.07 0.06 0.05 0.05 0.04 0.04 0.03 0.03 0.03 0.04 0.04 0.04
0.96 1.07 1.17 1.19 1.31 1.39 1.36 1.33 1.37 1.39 1.23 1.08 0.93 0.79 0.66 0.62 0.57 0.50 0.43 0.39 0.35 0.32 0.29 0.28 0.31 0.30 0.28 0.29 0.31 0.30 0.20 0.11 0.07 0.06 0.07 0.07 0.06 0.06 0.05 0.05 0.06 0.06 0.06
0.75 0.85 0.94 1.00 1.06 1.13 1.27 1.36 1.40 1.44 1.36 1.11 0.88 0.72 0.73 0.77 0.74 0.64 0.59 0.58 0.56 0.52 0.47 0.47 0.50 0.48 0.45 0.45 0.46 0.50 0.39 0.23 0.15 0.10 0.08 0.09 0.09 0.08 0.07 0.07 0.07 0.07 0.08
0.54 0.67 0.78 0.88 0.95 0.98 1.11 1.13 1.08 0.99 0.98 0.92 0.87 0.84 0.85 0.87 0.84 0.79 0.75 0.72 0.70 0.69 0.64 0.66 0.74 0.73 0.68 0.58 0.52 0.50 0.49 0.42 0.38 0.25 0.14 0.12 0.11 0.09 0.09 0.09 0.08 0.09 0.10
0.40 0.48 0.60 0.75 0.81 0.83 0.89 0.94 1.01 0.98 0.94 0.99 0.98 0.90 0.82 0.78 0.81 0.84 0.83 0.78 0.71 0.69 0.69 0.71 0.73 0.77 0.74 0.70 0.66 0.64 0.62 0.54 0.50 0.47 0.30 0.17 0.15 0.14 0.14 0.14 0.13 0.14 0.16
0.29 0.31 0.41 0.53 0.68 0.76 0.80 0.85 0.91 0.91 0.87 0.86 0.89 0.87 0.84 0.78 0.73 0.73 0.76 0.76 0.75 0.75 0.76 0.80 0.83 0.85 0.86 0.85 0.81 0.75 0.72 0.66 0.58 0.60 0.54 0.38 0.32 0.26 0.25 0.26 0.27 0.28 0.29